Location: Elkol
(41.7238°N, 110.6124°W)
Time: 15:59:04
(UTC+00:00)

BlueWalker 3 - Pass Details

Date: 06 December 2022
Orbit: 499 x 517 km, 53.2° (Epoch: 01 February)

Event Time Altitude Azimuth Distance (km) Brightness Sun altitude
Rises 00:39:15 0° 306° (NW) 2,630 6.1 -8.8°
Reaches altitude 10° 00:42:09 10° 328° (NNW) 1,738 4.8 -9.3°
Maximum altitude 00:44:41 16° 8° (N) 1,384 3.9 -9.7°
Enters shadow 00:46:46 12° 43° (NE) 1,629 4.0 -10.1°
